Flag for Canada Weather past 2 weeks in Kawartha Lakes, Ontario, Canada

Now
60 °F

Cool.


Feels Like: 60 °F
Forecast: 43 / 67 °F
Wind: 21 mph from Southwest

Location: Lagoon City

Current Time: Sep 20, 2014 at 1:03:10 PM

Latest Report: Sep 20, 2014 at 9:00 AM


Visibility: N/A

Pressure: 29.93 "Hg

Humidity: 88%

Dew point: 56 °F

Location of Kawartha LakesLocation

Historic Weather in Kawartha Lakes — Graph

°F

Kawartha Lakes temperature yesterday

Maximum temperature yesterday: 56 °F (at 5:00 PM)
Minimum temperature yesterday: 36 °F (at 4:00 AM)
Average temperature yesterday: 46 °F

Past Weeks' High & Low Weather Summary

 TemperatureHumidityPressure
High80 °F (Sep 5, 6:00 PM)97% (Sep 10, 2:00 AM)30.35 "Hg (Sep 10, 2:00 AM)
Low36 °F (Sep 19, 4:00 AM)33% (Sep 8, 5:00 PM)29.46 "Hg (Sep 11, 4:00 AM)
Average58 °F76%30.06 "Hg
* Reported Sep 5 9:00 AM — Sep 20 9:00 AM, Kawartha Lakes, Weather by CustomWeather, © 2014

Note: Actual official high and low records may vary slightly from our data, if they occured in-between our weather recording intervals... More about our weather records

Advertising

Kawartha Lakes weather history for previous 24 hours

 ConditionsComfort  
Time TempWeatherWind HumidityBarometerVisibility
9:00 AM
Sep 20
60 °FCool.21 mph88%29.93 "HgN/A
8:00 AM60 °FCool.18 mph89%29.96 "HgN/A
7:00 AM59 °FCool.20 mph88%29.95 "HgN/A
6:00 AM58 °FCool.20 mph83%29.96 "HgN/A
5:00 AM58 °FCool.16 mph83%29.98 "HgN/A
4:00 AM52 °FCool.3 mph91%30.00 "HgN/A
3:00 AM49 °FCool.5 mph89%30.02 "HgN/A
2:00 AM46 °FCool.6 mph91%30.04 "HgN/A
1:00 AM50 °FCool.6 mph85%30.05 "HgN/A
12:00 AM49 °FCool.6 mph85%30.07 "HgN/A
11:00 PM
Sep 19
50 °FCool.12 mph80%30.09 "HgN/A
10:00 PM46 °FCool.8 mph84%30.11 "HgN/A
9:00 PM48 °FCool.10 mph78%30.13 "HgN/A
8:00 PM50 °FCool.9 mph73%30.15 "HgN/A
7:00 PM54 °FCool.13 mph65%30.17 "HgN/A
6:00 PM55 °FCool.17 mph59%30.20 "HgN/A
5:00 PM56 °FRefreshingly cool.12 mph59%30.22 "HgN/A
4:00 PM55 °FRefreshingly cool.15 mph59%30.23 "HgN/A
3:00 PM55 °FCool.14 mph59%30.24 "HgN/A
2:00 PM53 °FCool.13 mph57%30.28 "HgN/A
1:00 PM52 °FCool.13 mph60%30.31 "HgN/A
Weather by CustomWeather, © 2014

See weather overviewHow to use our weather pages